This demonstration page uses our WeatherBlox Daily Observations layout. Learn more.

Left ArrowRight Arrow

Hourly Observations for May 15, 2015

Temp ( °F °C ) Dew Point ( °F °C ) Humidity (%) Winds ( mph kmh ) Pressure ( in mb ) Visibility ( mi km ) Precip ( " mm )
12:52 am 00:52 Partly Cloudy 57 13.9 56 13.3 96 96 S 6 9 29.92 1013 10 16 0.00 0.00
1:52 am 01:52 Partly Cloudy 57 13.9 56 13.3 96 96 S 7 11 29.92 1013 10 16 0.00 0.00
2:52 am 02:52 Partly Cloudy 57 13.9 56 13.3 96 96 ESE 5 7 29.92 1013 10 16 0.00 0.00
3:52 am 03:52 Partly Cloudy 54 12.2 53 11.7 97 97 SE 3 6 29.91 1013 10 16 0.00 0.00
4:52 am 04:52 Mostly Cloudy 56 13.3 54 12.2 93 93 SSE 3 6 29.89 1012 10 16 0.00 0.00
5:52 am 05:52 Mostly Cloudy 57 13.9 55 12.8 93 93 Calm 29.91 1013 10 16 0.00 0.00
6:52 am 06:52 Cloudy 56 13.3 55 12.8 97 97 Calm 29.92 1013 10 16 0.00 0.00
7:52 am 07:52 Cloudy 58 14.4 56 13.3 93 93 SE 6 9 29.93 1014 10 16 0.00 0.00
8:52 am 08:52 Cloudy 63 17.2 58 14.4 84 84 SE 6 9 29.93 1014 10 16 0.00 0.00
9:52 am 09:52 Mostly Cloudy 66 18.9 59 15 78 78 SSE 10 17 29.93 1013 10 16 0.00 0.00
10:52 am 10:52 Cloudy 65 18.3 59 15 81 81 S 10 17 29.96 1015 10 16 0.00 0.00
11:52 am 11:52 Cloudy 66 18.9 59 15 78 78 SE 5 7 29.96 1015 10 16 0.00 0.00
12:52 pm 12:52 Cloudy 66 18.9 61 16.1 84 84 NW 3 6 29.95 1014 10 16 0.00 0.03
1:52 pm 13:52 Cloudy 66 18.9 61 16.1 84 84 SSW 3 6 29.93 1014 10 16 0.00 0.03
2:39 pm 14:39 Cloudy with Thunderstorms 65 18.3 62 16.7 90 90 SSE 15 24 29.88 1012 9 14 0.00 0.03
2:52 pm 14:52 Windy with Storms Likely 65 18.3 62 16.7 90 90 SE 20 31 29.91 1013 9 14 0.03 0.76
3:08 pm 15:08 Cloudy with Light Rain 64 18 63 17 94 94 S 16 26 29.91 1013 8 13 0.00 0.00
3:16 pm 15:16 Cloudy with Thunderstorms 64 18 63 17 94 94 SSE 15 24 29.91 1013 8 13 0.00 0.00
3:52 pm 15:52 Cloudy with Light Rain 64 17.8 62 16.7 93 93 E 9 15 29.89 1012 9 14 0.06 1.52
4:52 pm 16:52 Cloudy 66 18.9 61 16.1 84 84 SSE 13 20 29.86 1011 10 16 0.01 0.25
5:52 pm 17:52 Mostly Cloudy 68 20 62 16.7 81 81 ESE 16 26 29.84 1011 10 16 0.00 0.00
6:52 pm 18:52 Mostly Cloudy 69 20.6 60 15.6 73 73 SE 17 28 29.82 1010 10 16 0.00 0.00
7:52 pm 19:52 Mostly Cloudy 68 20 59 15 73 73 SE 15 24 29.82 1010 10 16 0.00 0.00
8:52 pm 20:52 Mostly Cloudy 65 18.3 59 15 81 81 SE 8 13 29.83 1010 10 16 0.00 0.00
9:52 pm 21:52 Cloudy 66 18.9 60 15.6 81 81 SSE 14 22 29.83 1010 10 16 0.00 0.00
10:52 pm 22:52 Mostly Cloudy 66 18.9 61 16.1 84 84 SSE 14 22 29.84 1010 10 16 0.00 0.00
11:52 pm 23:52 Mostly Cloudy 65 18.3 62 16.7 90 90 SSE 13 20 29.83 1010 10 16 0.00 0.00

Powered by AerisWeather